Hourly Data Report for May 12, 2021

FISHER BRANCH (AUT)
MANITOBA
Current Station Operator: ECCC - MSC

51°05'00.100" N
97°33'16.200" W
253.00 m
50309J6
71442
WSZ

Download Data

Hourly Data (May 2021)
Hourly Data Report for May 12, 2021
TIME
LST
Temp Definition
°C
Dew Point Definition
°C
Rel Hum Definition
%
Precip. Amount Definition
mm

Wind Dir Definition
10's deg

Wind Spd Definition
km/h
Visibility Definition
km
Stn Press Definition
kPa
Hmdx Definition


Wind Chill Definition


Weather Definition


00:00 8.8 -9.7 26 0.0 17 7   99.28     LegendNANA
01:00 9.0 -9.5 26 0.0 17 10   99.26     LegendNANA
02:00 7.5 -9.5 29 0.0 18 9   99.23     LegendNANA
03:00 6.1 -8.7 34 0.0 18 7   99.23     LegendNANA
04:00 5.3 -7.3 40 0.0 18 11   99.22     LegendNANA
05:00 5.0 -7.2 41 0.0 19 11   99.25     LegendNANA
06:00 7.2 -5.7 39 0.0 19 11   99.25     LegendNANA
07:00 11.7 -4.7 32 0.0 20 15   99.26     LegendNANA
08:00 15.8 -4.5 24 0.0 19 15   99.24     LegendNANA
09:00 18.9 -6.0 18 0.0 20 15   99.21     LegendNANA
10:00 21.6 -8.5 12 0.0 21 19   99.18     LegendNANA
11:00 22.2 -8.9 12 0.0 16 18   99.17     LegendNANA
12:00 23.0 -8.5 11 0.0 19 22   99.14     LegendNANA
13:00 23.1 -8.5 11 0.0 23 16   99.08     LegendNANA
14:00 23.4 -9.4 10 0.0 21 18   99.05     LegendNANA
15:00 23.0 LegendMM LegendMM 0.0 20 19   99.04     LegendNANA
16:00 23.2 -10.0 10 0.0 18 15   98.99     LegendNANA
17:00 23.1 -9.7 10 0.0 18 18   98.96     LegendNANA
18:00 22.6 -8.6 12 0.0 20 15   98.92     LegendNANA
19:00 21.6 -9.0 12 0.0 20 14   98.91     LegendNANA
20:00 18.3 -9.7 14 0.0 20 8   98.92     LegendNANA
21:00 15.5 -9.5 17 0.0 18 6   98.95     LegendNANA
22:00 14.7 -8.5 19 0.0 19 8   98.96     LegendNANA
23:00 12.4 -8.2 23 0.0 22 8   98.97     LegendNANA

Notes on Data Quality.

Legend

  • E = Estimated
  • M = Missing
  • NA = Not Available*
  • [empty] = Indicates an unobserved value
Date modified: